| time (UTC) | temp F | wind direction | speed knots | gust knots | rain 1hr in | rain 24hr in | rain mn in | humidity % | barometer mb |
| 20260502152340 | 41 | 47 | 0.9 | 1.7 | 0.00 | 0.17 | 0.17 | 73 | 1016.5 |
| 20260502151838 | 41 | 57 | 0.9 | 2.6 | 0.00 | 0.17 | 0.17 | 75 | 1016.7 |
| 20260502151334 | 41 | 11 | 2.6 | 3.5 | 0.00 | 0.17 | 0.17 | 74 | 1016.8 |
| 20260502150832 | 41 | 32 | 4.3 | 6.1 | 0.00 | 0.17 | 0.17 | 73 | 1016.6 |
| 20260502150328 | 41 | 62 | 0.9 | 2.6 | 0.00 | 0.17 | 0.17 | 75 | 1016.6 |
| 20260502130716 | 40 | 352 | 6.1 | 7.0 | 0.00 | 0.17 | 0.17 | 78 | 1015.6 |
| 20260502130214 | 40 | 14 | 3.5 | 8.7 | 0.00 | 0.17 | 0.17 | 77 | 1015.7 |
| 20260502123700 | 40 | 14 | 3.5 | 3.5 | 0.00 | 0.17 | 0.17 | 78 | 1015.6 |
| 20260502123156 | 40 | 32 | 1.7 | 6.1 | 0.00 | 0.17 | 0.17 | 79 | 1015.7 |
| 20260502122652 | 40 | 5 | 3.5 | 6.1 | 0.00 | 0.17 | 0.17 | 79 | 1015.7 |
| 20260502122149 | 40 | 47 | 2.6 | 7.0 | 0.00 | 0.17 | 0.17 | 80 | 1015.6 |
| 20260502121648 | 40 | 20 | 2.6 | 3.5 | 0.00 | 0.17 | 0.17 | 81 | 1015.7 |
| 20260502121145 | 40 | 1 | 1.7 | 5.2 | 0.00 | 0.17 | 0.17 | 80 | 1015.8 |
| 20260502120641 | 40 | 35 | 1.7 | 6.1 | 0.00 | 0.17 | 0.17 | 79 | 1015.6 |
| 20260502120138 | 40 | 353 | 3.5 | 7.0 | 0.00 | 0.17 | 0.17 | 80 | 1015.6 |
| 20260502115636 | 40 | 1 | 3.5 | 5.2 | 0.00 | 0.17 | 0.17 | 81 | 1015.5 |
| 20260502115131 | 39 | 10 | 1.7 | 3.5 | 0.00 | 0.17 | 0.17 | 81 | 1015.6 |
| 20260502114627 | 39 | 16 | 2.6 | 3.5 | 0.00 | 0.17 | 0.17 | 82 | 1015.6 |
| 20260502114125 | 39 | 347 | 4.3 | 5.2 | 0.00 | 0.17 | 0.17 | 83 | 1015.4 |
| 20260502113623 | 39 | 18 | 2.6 | 2.6 | 0.00 | 0.17 | 0.17 | 84 | 1015.5 |
| 20260502113121 | 39 | 12 | 3.5 | 3.5 | 0.00 | 0.17 | 0.17 | 85 | 1015.5 |
| 20260502112618 | 39 | 345 | 2.6 | 2.6 | 0.00 | 0.17 | 0.17 | 84 | 1015.5 |
| 20260502112115 | 39 | 15 | 2.6 | 5.2 | 0.00 | 0.17 | 0.17 | 84 | 1015.4 |
| 20260502111613 | 39 | 15 | 4.3 | 5.2 | 0.00 | 0.17 | 0.17 | 85 | 1015.5 |
| 20260502111110 | 39 | 11 | 1.7 | 1.7 | 0.00 | 0.17 | 0.17 | 86 | 1015.3 |
| 20260502110608 | 39 | 14 | 1.7 | 5.2 | 0.00 | 0.17 | 0.17 | 86 | 1015.3 |
| 20260502110105 | 39 | 5 | 2.6 | 3.5 | 0.00 | 0.17 | 0.17 | 88 | 1015.3 |
| 20260502105602 | 39 | 3 | 1.7 | 2.6 | 0.00 | 0.17 | 0.17 | 88 | 1015.2 |
| 20260502105100 | 39 | 4 | 0.9 | 2.6 | 0.00 | 0.17 | 0.17 | 88 | 1015.2 |
| 20260502104556 | 39 | 358 | 2.6 | 2.6 | 0.00 | 0.17 | 0.17 | 88 | 1015.0 |
| 20260502104054 | 38 | 357 | 3.5 | 5.2 | 0.00 | 0.17 | 0.17 | 89 | 1014.9 |
| 20260502103552 | 38 | 9 | 2.6 | 2.6 | 0.00 | 0.17 | 0.17 | 90 | 1015.1 |
| 20260502103050 | 38 | 4 | 0.9 | 2.6 | 0.00 | 0.17 | 0.17 | 91 | 1015.1 |
| 20260502102545 | 38 | 354 | 1.7 | 2.6 | 0.00 | 0.17 | 0.17 | 91 | 1014.9 |
| 20260502102043 | 38 | 10 | 0.9 | 2.6 | 0.00 | 0.17 | 0.17 | 91 | 1015.0 |
| 20260502101541 | 38 | 12 | 1.7 | 2.6 | 0.00 | 0.17 | 0.17 | 91 | 1015.0 |
| 20260502101039 | 38 | 15 | 1.7 | 2.6 | 0.00 | 0.17 | 0.17 | 91 | 1014.7 |
| 20260502100537 | 38 | 16 | 0.9 | 2.6 | 0.00 | 0.17 | 0.17 | 92 | 1015.0 |
| 20260502091512 | 38 | 10 | 3.5 | 7.0 | 0.00 | 0.17 | 0.17 | 91 | 1014.5 |
| 20260502091009 | 38 | 23 | 3.5 | 3.5 | 0.00 | 0.17 | 0.17 | 91 | 1014.7 |
| 20260502090506 | 38 | 31 | 7.0 | 7.8 | 0.00 | 0.17 | 0.17 | 91 | 1014.3 |
| 20260502071400 | 39 | 175 | 1.7 | 1.7 | 0.00 | 0.17 | 0.17 | 95 | 1014.2 |
| 20260502070858 | 39 | 173 | 1.7 | 1.7 | 0.00 | 0.17 | 0.17 | 95 | 1014.0 |
| 20260502070356 | 39 | 173 | 0.9 | 0.9 | 0.00 | 0.17 | 0.17 | 95 | 1014.1 |
| 20260502065855 | 39 | 173 | 0.9 | 0.9 | 0.00 | 0.17 | 0.17 | 95 | 1014.1 |
| 20260502065352 | 39 | 173 | 0.9 | 0.9 | 0.00 | 0.17 | 0.17 | 95 | 1014.2 |
| 20260502064850 | 38 | 173 | 0.0 | 0.0 | 0.00 | 0.17 | 0.17 | 95 | 1014.2 |
| 20260502064348 | 38 | 173 | 0.0 | 0.9 | 0.00 | 0.17 | 0.17 | 95 | 1014.4 |
| 20260502063844 | 38 | 173 | 0.9 | 1.7 | 0.00 | 0.17 | 0.17 | 95 | 1014.2 |
| 20260502063343 | 38 | 172 | 0.0 | 0.9 | 0.00 | 0.17 | 0.17 | 95 | 1014.2 |
| 20260502062840 | 38 | 173 | 1.7 | 1.7 | 0.00 | 0.17 | 0.17 | 95 | 1014.3 |
| 20260502062337 | 38 | 173 | 0.9 | 1.7 | 0.00 | 0.17 | 0.17 | 94 | 1014.3 |
| 20260502061836 | 38 | 173 | 0.9 | 0.9 | 0.00 | 0.17 | 0.17 | 94 | 1014.3 |
| 20260502061333 | 38 | 172 | 0.0 | 0.0 | 0.00 | 0.17 | 0.17 | 94 | 1014.4 |
| 20260502060829 | 38 | 172 | 0.0 | 0.0 | 0.00 | 0.17 | 0.17 | 94 | 1014.4 |
| 20260502060324 | 38 | 172 | 0.0 | 0.0 | 0.00 | 0.17 | 0.17 | 93 | 1014.4 |
| 20260502055822 | 38 | 173 | 0.0 | 0.9 | 0.00 | 0.17 | 0.17 | 93 | 1014.6 |
| 20260502055320 | 39 | 173 | 1.7 | 1.7 | 0.00 | 0.17 | 0.17 | 93 | 1014.7 |
| 20260502054819 | 39 | 170 | 2.6 | 2.6 | 0.07 | 0.17 | 0.17 | 92 | 1014.6 |
| 20260502054316 | 39 | 48 | 1.7 | 2.6 | 0.07 | 0.17 | 0.17 | 92 | 1014.5 |
| 20260502053814 | 39 | 109 | 0.9 | 1.7 | 0.17 | 0.16 | 0.16 | 92 | 1014.6 |
| 20260502053311 | 40 | 111 | 0.9 | 1.7 | 0.35 | 0.16 | 0.16 | 92 | 1014.6 |
| 20260502052808 | 40 | 197 | 0.0 | 0.9 | 0.35 | 0.13 | 0.13 | 92 | 1015.0 |
| 20260502052306 | 40 | 213 | 0.9 | 1.7 | 0.31 | 0.09 | 0.09 | 91 | 1015.0 |
| 20260502051804 | 40 | 212 | 2.6 | 2.6 | 0.31 | 0.07 | 0.07 | 90 | 1015.0 |
| 20260502051303 | 40 | 138 | 0.0 | 0.0 | 0.24 | 0.04 | 0.04 | 90 | 1015.0 |
| 20260502050758 | 41 | 138 | 0.9 | 1.7 | 0.12 | 0.02 | 0.02 | 90 | 1015.1 |
| 20260502050254 | 41 | 83 | 0.0 | 0.9 | 0.00 | 0.00 | 0.00 | 90 | 1014.9 |
| 20260502045752 | 41 | 83 | 0.0 | 0.9 | 0.00 | 0.00 | 0.00 | 90 | 1014.8 |
| 20260502045248 | 41 | 76 | 1.7 | 3.5 | 0.00 | 0.00 | 0.00 | 90 | 1015.0 |
| 20260502044745 | 41 | 86 | 0.9 | 2.6 | 0.00 | 0.00 | 0.00 | 90 | 1014.9 |
| 20260502044241 | 41 | 66 | 1.7 | 5.2 | 0.00 | 0.00 | 0.00 | 90 | 1014.8 |
| 20260502043739 | 41 | 63 | 3.5 | 3.5 | 0.00 | 0.00 | 0.00 | 90 | 1014.7 |
| 20260502043236 | 41 | 72 | 0.9 | 2.6 | 0.00 | 0.00 | 0.00 | 90 | 1014.9 |
| 20260502042736 | 41 | 46 | 2.6 | 5.2 | 0.00 | 0.00 | 0.00 | 90 | 1014.7 |
| 20260502042233 | 41 | 60 | 4.3 | 7.0 | 0.00 | 0.00 | 0.00 | 91 | 1014.9 |
| 20260502041731 | 41 | 44 | 1.7 | 6.1 | 0.00 | 0.00 | 0.00 | 91 | 1015.0 |
| 20260502041228 | 41 | 52 | 1.7 | 2.6 | 0.00 | 0.00 | 0.00 | 92 | 1014.8 |
| 20260502040725 | 41 | 3 | 3.5 | 3.5 | 0.00 | 0.00 | 0.00 | 93 | 1014.9 |
| 20260502040222 | 40 | 142 | 0.9 | 0.9 | 0.00 | 0.00 | 0.00 | 93 | 1014.8 |
| 20260502035718 | 40 | 232 | 0.0 | 0.9 | 0.00 | 0.69 | 0.69 | 93 | 1014.8 |
| 20260502035215 | 40 | 233 | 0.0 | 0.9 | 0.00 | 0.69 | 0.69 | 93 | 1014.8 |
| 20260502034712 | 40 | 281 | 1.7 | 2.6 | 0.00 | 0.69 | 0.69 | 93 | 1014.7 |
| 20260502034210 | 39 | 214 | 0.9 | 1.7 | 0.00 | 0.69 | 0.69 | 93 | 1014.6 |
| 20260502033708 | 39 | 193 | 1.7 | 2.6 | 0.00 | 0.69 | 0.69 | 93 | 1014.5 |
| 20260502033206 | 39 | 170 | 1.7 | 1.7 | 0.00 | 0.69 | 0.69 | 93 | 1014.3 |
| 20260502032702 | 39 | 169 | 0.9 | 1.7 | 0.00 | 0.69 | 0.69 | 93 | 1014.3 |
| 20260502032158 | 39 | 174 | 2.6 | 2.6 | 0.00 | 0.69 | 0.69 | 92 | 1014.3 |
| 20260502031656 | 39 | 172 | 1.7 | 2.6 | 0.00 | 0.69 | 0.69 | 92 | 1014.3 |
| 20260502031153 | 39 | 179 | 2.6 | 3.5 | 0.00 | 0.69 | 0.69 | 91 | 1014.3 |
| 20260502030652 | 40 | 186 | 1.7 | 1.7 | 0.00 | 0.69 | 0.69 | 90 | 1014.3 |
| 20260502030150 | 40 | 194 | 1.7 | 1.7 | 0.00 | 0.69 | 0.69 | 89 | 1014.2 |
| 20260502025647 | 40 | 196 | 1.7 | 2.6 | 0.00 | 0.69 | 0.69 | 88 | 1014.3 |
| 20260502025145 | 40 | 207 | 3.5 | 3.5 | 0.00 | 0.69 | 0.69 | 88 | 1014.2 |
| 20260502024642 | 40 | 205 | 2.6 | 2.6 | 0.00 | 0.69 | 0.69 | 88 | 1014.3 |
| 20260502024140 | 40 | 202 | 2.6 | 2.6 | 0.00 | 0.69 | 0.69 | 88 | 1014.1 |
| 20260502023638 | 41 | 212 | 0.9 | 1.7 | 0.00 | 0.69 | 0.69 | 87 | 1014.2 |
| 20260502023135 | 41 | 212 | 1.7 | 1.7 | 0.00 | 0.69 | 0.69 | 86 | 1014.2 |
| 20260502022632 | 41 | 236 | 3.5 | 3.5 | 0.07 | 0.69 | 0.69 | 85 | 1014.1 |
| 20260502022129 | 41 | 222 | 2.6 | 2.6 | 0.19 | 0.69 | 0.69 | 84 | 1014.3 |
| 20260502021626 | 41 | 199 | 3.5 | 6.1 | 0.17 | 0.68 | 0.68 | 85 | 1014.4 |
| 20260502021123 | 41 | 225 | 5.2 | 11.3 | 0.12 | 0.66 | 0.66 | 84 | 1014.4 |
| 20260502020621 | 41 | 249 | 8.7 | 13.0 | 0.14 | 0.65 | 0.65 | 86 | 1014.5 |
| 20260502020117 | 42 | 241 | 5.2 | 7.8 | 0.07 | 0.64 | 0.64 | 87 | 1014.7 |
| 20260502015615 | 42 | 284 | 5.2 | 7.0 | 0.00 | 0.63 | 0.63 | 88 | 1014.7 |
| 20260502015111 | 42 | 240 | 1.7 | 3.5 | 0.00 | 0.63 | 0.63 | 89 | 1014.3 |
| 20260502014609 | 42 | 286 | 1.7 | 2.6 | 0.05 | 0.63 | 0.63 | 89 | 1014.5 |
| 20260502014106 | 42 | 308 | 0.9 | 3.5 | 0.05 | 0.63 | 0.63 | 89 | 1014.3 |
| 20260502013601 | 42 | 272 | 1.7 | 3.5 | 0.07 | 0.62 | 0.62 | 88 | 1014.2 |
| 20260502013057 | 42 | 296 | 0.9 | 3.5 | 0.12 | 0.62 | 0.62 | 87 | 1014.1 |
| 20260502012555 | 42 | 273 | 1.7 | 7.0 | 0.12 | 0.61 | 0.61 | 86 | 1014.2 |
| 20260502012053 | 42 | 278 | 4.3 | 7.0 | 0.12 | 0.60 | 0.60 | 84 | 1014.1 |
| 20260502011549 | 43 | 314 | 7.8 | 11.3 | 0.00 | 0.58 | 0.58 | 80 | 1014.1 |
| 20260502011045 | 44 | 225 | 1.7 | 1.7 | 0.12 | 0.58 | 0.58 | 81 | 1013.7 |
| 20260502010543 | 44 | 214 | 1.7 | 1.7 | 0.12 | 0.57 | 0.57 | 81 | 1013.8 |
| 20260502010039 | 44 | 254 | 0.9 | 1.7 | 0.07 | 0.56 | 0.56 | 82 | 1013.8 |
| 20260502005537 | 45 | 240 | 1.7 | 1.7 | 0.00 | 0.55 | 0.55 | 79 | 1013.8 |
| 20260502005035 | 45 | 240 | 1.7 | 1.7 | 0.00 | 0.55 | 0.55 | 79 | 1013.6 |
| 20260502004530 | 45 | 222 | 1.7 | 1.7 | 0.00 | 0.55 | 0.55 | 78 | 1013.6 |
| 20260502004027 | 45 | 222 | 1.7 | 2.6 | 0.00 | 0.55 | 0.55 | 78 | 1013.4 |
| 20260502003525 | 45 | 221 | 1.7 | 1.7 | 0.00 | 0.55 | 0.55 | 77 | 1013.4 |
| 20260502003021 | 45 | 221 | 1.7 | 1.7 | 0.00 | 0.55 | 0.55 | 77 | 1013.6 |
| 20260502002518 | 45 | 221 | 1.7 | 1.7 | 0.00 | 0.55 | 0.55 | 77 | 1013.4 |
| 20260502002015 | 45 | 221 | 1.7 | 1.7 | 0.00 | 0.55 | 0.55 | 74 | 1013.3 |
| 20260502001513 | 45 | 221 | 1.7 | 1.7 | 0.00 | 0.55 | 0.55 | 74 | 1013.5 |
| 20260502001010 | 45 | 221 | 1.7 | 1.7 | 0.00 | 0.55 | 0.55 | 74 | 1013.5 |
| 20260502000509 | 45 | 221 | 1.7 | 1.7 | 0.00 | 0.55 | 0.55 | 74 | 1013.4 |
| 20260502000005 | 45 | 221 | 1.7 | 1.7 | 0.00 | 0.55 | 0.55 | 74 | 1013.2 |
| 20260501235501 | 45 | 202 | 1.7 | 1.7 | 0.00 | 0.55 | 0.55 | 74 | 1013.1 |
| 20260501234955 | 45 | 208 | 1.7 | 1.7 | 0.00 | 0.55 | 0.55 | 74 | 1013.0 |
| 20260501234452 | 45 | 203 | 3.5 | 3.5 | 0.00 | 0.55 | 0.55 | 73 | 1013.1 |
| 20260501233951 | 46 | 223 | 1.7 | 2.6 | 0.00 | 0.55 | 0.55 | 73 | 1013.1 |
| 20260501233449 | 46 | 219 | 1.7 | 1.7 | 0.00 | 0.55 | 0.55 | 72 | 1013.0 |
| 20260501232944 | 46 | 220 | 3.5 | 2.6 | 0.00 | 0.55 | 0.55 | 71 | 1013.2 |
| 20260501232441 | 46 | 217 | 3.5 | 3.5 | 0.00 | 0.55 | 0.55 | 70 | 1013.0 |
| 20260501231938 | 46 | 196 | 0.0 | 0.9 | 0.00 | 0.55 | 0.55 | 70 | 1013.1 |
| 20260501231437 | 46 | 194 | 0.9 | 1.7 | 0.00 | 0.55 | 0.55 | 69 | 1013.0 |
| 20260501230935 | 46 | 215 | 2.6 | 2.6 | 0.00 | 0.55 | 0.55 | 69 | 1013.2 |
| 20260501230434 | 46 | 230 | 1.7 | 1.7 | 0.00 | 0.55 | 0.55 | 70 | 1013.1 |
| 20260501225930 | 46 | 227 | 2.6 | 3.5 | 0.00 | 0.55 | 0.55 | 68 | 1013.1 |
| 20260501225428 | 46 | 272 | 3.5 | 3.5 | 0.00 | 0.55 | 0.55 | 67 | 1013.2 |
| 20260501224923 | 46 | 242 | 1.7 | 2.6 | 0.00 | 0.55 | 0.55 | 66 | 1013.1 |
| 20260501224421 | 46 | 262 | 1.7 | 2.6 | 0.00 | 0.55 | 0.55 | 67 | 1013.1 |
| 20260501223918 | 46 | 245 | 3.5 | 5.2 | 0.00 | 0.55 | 0.55 | 67 | 1013.0 |
| 20260501223414 | 46 | 256 | 1.7 | 2.6 | 0.00 | 0.55 | 0.55 | 66 | 1013.1 |
| 20260501222910 | 46 | 240 | 0.9 | 2.6 | 0.00 | 0.55 | 0.55 | 68 | 1013.0 |
| 20260501222408 | 46 | 238 | 2.6 | 2.6 | 0.00 | 0.55 | 0.55 | 69 | 1013.3 |
| 20260501221903 | 46 | 244 | 1.7 | 1.7 | 0.00 | 0.55 | 0.55 | 68 | 1012.9 |
| 20260501221401 | 47 | 275 | 2.6 | 3.5 | 0.00 | 0.55 | 0.55 | 66 | 1013.2 |
| 20260501220859 | 46 | 226 | 2.6 | 3.5 | 0.00 | 0.55 | 0.55 | 66 | 1013.0 |
| 20260501220356 | 47 | 261 | 3.5 | 5.2 | 0.00 | 0.55 | 0.55 | 66 | 1012.9 |
| 20260501215852 | 47 | 309 | 2.6 | 5.2 | 0.00 | 0.55 | 0.55 | 66 | 1013.0 |
| 20260501215349 | 47 | 240 | 2.6 | 5.2 | 0.00 | 0.55 | 0.55 | 67 | 1013.0 |
| 20260501214845 | 46 | 281 | 4.3 | 5.2 | 0.00 | 0.55 | 0.55 | 67 | 1012.9 |
| 20260501214340 | 46 | 272 | 2.6 | 3.5 | 0.00 | 0.55 | 0.55 | 66 | 1013.0 |
| 20260501213836 | 46 | 233 | 1.7 | 3.5 | 0.00 | 0.55 | 0.55 | 68 | 1012.9 |
| 20260501213333 | 46 | 257 | 3.5 | 3.5 | 0.00 | 0.55 | 0.55 | 67 | 1012.9 |
| 20260501212828 | 46 | 218 | 0.0 | 1.7 | 0.00 | 0.55 | 0.55 | 70 | 1012.9 |
| 20260501212325 | 46 | 217 | 0.9 | 1.7 | 0.00 | 0.55 | 0.55 | 69 | 1012.7 |
| 20260501211822 | 46 | 258 | 1.7 | 1.7 | 0.00 | 0.55 | 0.55 | 70 | 1012.8 |
| 20260501211320 | 46 | 280 | 2.6 | 2.6 | 0.00 | 0.55 | 0.55 | 70 | 1013.1 |
| 20260501210817 | 46 | 284 | 3.5 | 3.5 | 0.00 | 0.55 | 0.55 | 70 | 1012.9 |
| 20260501210314 | 46 | 297 | 1.7 | 3.5 | 0.00 | 0.55 | 0.55 | 70 | 1012.8 |
| 20260501205810 | 46 | 314 | 4.3 | 5.2 | 0.00 | 0.55 | 0.55 | 71 | 1012.8 |
| 20260501205307 | 46 | 26 | 2.6 | 3.5 | 0.00 | 0.55 | 0.55 | 69 | 1012.7 |
| 20260501204804 | 46 | 262 | 2.6 | 2.6 | 0.00 | 0.55 | 0.55 | 70 | 1012.7 |
| 20260501204300 | 46 | 272 | 2.6 | 2.6 | 0.00 | 0.55 | 0.55 | 75 | 1012.7 |
| 20260501203756 | 46 | 282 | 0.9 | 0.9 | 0.00 | 0.55 | 0.55 | 73 | 1012.7 |
| 20260501203254 | 46 | 294 | 2.6 | 3.5 | 0.00 | 0.55 | 0.55 | 74 | 1012.5 |
| 20260501202751 | 46 | 265 | 1.7 | 1.7 | 0.00 | 0.55 | 0.55 | 75 | 1012.6 |
| 20260501202248 | 45 | 300 | 1.7 | 2.6 | 0.00 | 0.55 | 0.55 | 77 | 1012.6 |
| 20260501201745 | 45 | 320 | 2.6 | 3.5 | 0.00 | 0.55 | 0.55 | 76 | 1012.4 |
| 20260501201242 | 44 | 327 | 0.9 | 1.7 | 0.00 | 0.55 | 0.55 | 79 | 1012.4 |
| 20260501200738 | 44 | 322 | 3.5 | 3.5 | 0.00 | 0.55 | 0.55 | 79 | 1012.4 |
| 20260501200235 | 44 | 290 | 3.5 | 5.2 | 0.00 | 0.55 | 0.55 | 80 | 1012.5 |
| 20260501195732 | 44 | 315 | 2.6 | 3.5 | 0.00 | 0.55 | 0.55 | 81 | 1012.5 |
| 20260501195228 | 44 | 300 | 2.6 | 3.5 | 0.00 | 0.55 | 0.55 | 82 | 1012.7 |
| 20260501194725 | 44 | 303 | 1.7 | 6.1 | 0.00 | 0.55 | 0.55 | 82 | 1012.5 |
| 20260501194220 | 44 | 308 | 3.5 | 3.5 | 0.00 | 0.55 | 0.55 | 84 | 1012.7 |
| 20260501193717 | 44 | 300 | 3.5 | 3.5 | 0.00 | 0.55 | 0.55 | 85 | 1012.6 |
| 20260501193216 | 43 | 320 | 2.6 | 6.1 | 0.00 | 0.55 | 0.55 | 85 | 1012.6 |
| 20260501192714 | 43 | 310 | 2.6 | 3.5 | 0.00 | 0.55 | 0.55 | 86 | 1012.7 |
| 20260501192210 | 43 | 333 | 3.5 | 5.2 | 0.00 | 0.55 | 0.55 | 87 | 1012.3 |
| 20260501191707 | 43 | 323 | 4.3 | 5.2 | 0.00 | 0.55 | 0.55 | 88 | 1012.7 |
| 20260501191204 | 43 | 322 | 2.6 | 3.5 | 0.00 | 0.55 | 0.55 | 89 | 1012.5 |
| 20260501190701 | 42 | 297 | 1.7 | 3.5 | 0.00 | 0.55 | 0.55 | 87 | 1012.7 |
| 20260501190156 | 42 | 309 | 2.6 | 5.2 | 0.00 | 0.55 | 0.55 | 88 | 1012.5 |
| 20260501185652 | 42 | 351 | 4.3 | 7.0 | 0.12 | 0.55 | 0.55 | 88 | 1012.3 |
| 20260501185148 | 42 | 320 | 2.6 | 7.0 | 0.12 | 0.55 | 0.55 | 88 | 1012.4 |
| 20260501184645 | 43 | 29 | 6.1 | 7.8 | 0.00 | 0.53 | 0.53 | 85 | 1012.4 |
| 20260501184144 | 43 | 343 | 6.1 | 7.0 | 0.00 | 0.53 | 0.53 | 84 | 1012.4 |
| 20260501183642 | 44 | 10 | 5.2 | 7.0 | 0.00 | 0.53 | 0.53 | 82 | 1012.2 |
| 20260501183138 | 45 | 21 | 7.0 | 8.7 | 0.00 | 0.53 | 0.53 | 80 | 1012.1 |
| 20260501182635 | 45 | 35 | 4.3 | 9.6 | 0.00 | 0.53 | 0.53 | 80 | 1012.0 |
| 20260501182131 | 44 | 42 | 4.3 | 7.0 | 0.00 | 0.53 | 0.53 | 80 | 1011.9 |
| 20260501181629 | 45 | 22 | 4.3 | 7.0 | 0.00 | 0.53 | 0.53 | 80 | 1011.9 |
| 20260501181125 | 44 | 17 | 5.2 | 7.0 | 0.00 | 0.53 | 0.53 | 81 | 1011.8 |
| 20260501180624 | 44 | 36 | 6.1 | 7.8 | 0.00 | 0.53 | 0.53 | 81 | 1011.6 |
| 20260501180119 | 45 | 47 | 4.3 | 9.6 | 0.00 | 0.53 | 0.53 | 81 | 1011.5 |
| 20260501175617 | 45 | 22 | 6.1 | 8.7 | 0.00 | 0.53 | 0.53 | 80 | 1011.7 |
| 20260501175113 | 44 | 31 | 6.1 | 8.7 | 0.00 | 0.53 | 0.53 | 81 | 1011.7 |
| 20260501174610 | 44 | 358 | 8.7 | 11.3 | 0.00 | 0.53 | 0.53 | 81 | 1011.8 |
| 20260501174108 | 44 | 10 | 6.1 | 7.8 | 0.00 | 0.53 | 0.53 | 81 | 1011.9 |
| 20260501173605 | 43 | 31 | 7.8 | 7.8 | 0.00 | 0.53 | 0.53 | 83 | 1011.5 |
| 20260501173101 | 43 | 357 | 5.2 | 7.0 | 0.00 | 0.53 | 0.53 | 85 | 1011.8 |
| 20260501172557 | 43 | 338 | 6.1 | 9.6 | 0.00 | 0.53 | 0.53 | 84 | 1011.8 |
| 20260501172053 | 43 | 4 | 5.2 | 9.6 | 0.00 | 0.53 | 0.53 | 84 | 1011.7 |
| 20260501171549 | 43 | 16 | 5.2 | 11.3 | 0.00 | 0.53 | 0.53 | 85 | 1011.6 |
| 20260501171046 | 43 | 16 | 5.2 | 7.0 | 0.00 | 0.53 | 0.53 | 87 | 1011.5 |
| 20260501170543 | 43 | 19 | 6.1 | 7.8 | 0.00 | 0.53 | 0.53 | 86 | 1011.7 |
| 20260501170040 | 42 | 21 | 3.5 | 11.3 | 0.00 | 0.53 | 0.53 | 87 | 1011.5 |
| 20260501165537 | 42 | 13 | 5.2 | 9.6 | 0.05 | 0.53 | 0.53 | 89 | 1011.4 |
| 20260501165035 | 42 | 30 | 5.2 | 7.0 | 0.05 | 0.53 | 0.53 | 88 | 1011.4 |
| 20260501164532 | 43 | 31 | 3.5 | 5.2 | 0.00 | 0.52 | 0.52 | 89 | 1011.4 |
| 20260501164029 | 43 | 334 | 6.1 | 7.8 | 0.07 | 0.52 | 0.52 | 89 | 1011.3 |
| 20260501163526 | 43 | 15 | 5.2 | 7.0 | 0.07 | 0.52 | 0.52 | 89 | 1011.4 |
| 20260501163022 | 42 | 41 | 3.5 | 3.5 | 0.07 | 0.51 | 0.51 | 90 | 1011.3 |
| 20260501162519 | 42 | 33 | 1.7 | 3.5 | 0.12 | 0.51 | 0.51 | 90 | 1011.4 |
| 20260501162016 | 42 | 40 | 1.7 | 3.5 | 0.12 | 0.50 | 0.50 | 89 | 1011.3 |
| 20260501161513 | 42 | 19 | 6.1 | 7.0 | 0.07 | 0.49 | 0.49 | 89 | 1011.4 |
| 20260501161009 | 42 | 12 | 4.3 | 6.1 | 0.00 | 0.48 | 0.48 | 89 | 1011.4 |
| 20260501160507 | 42 | 32 | 3.5 | 5.2 | 0.05 | 0.48 | 0.48 | 90 | 1011.4 |
| 20260501160003 | 42 | 16 | 1.7 | 5.2 | 0.05 | 0.48 | 0.48 | 90 | 1011.3 |
| 20260501155500 | 42 | 41 | 1.7 | 3.5 | 0.00 | 0.47 | 0.47 | 90 | 1011.0 |